Location: Tambov
(52.7163°N, 41.4075°E)
Time: 21:12:49
(UTC+03:00)

Envisat - Pass Details

Date: 09 March 2021
Orbit: 764 x 766 km, 98.1° (Epoch: 17 April)

Event Time Altitude Azimuth Distance (km) Brightness Sun altitude
Rises 05:52:42 0° 16° (NNE) 3,247 6.5 -8.4°
Reaches altitude 10° 05:55:03 10° 19° (NNE) 2,316 5.8 -8.1°
Maximum altitude 06:00:08 66° 102° (ESE) 839 3.5 -7.3°
Drops below altitude 10° 06:05:10 10° 185° (S) 2,298 5.4 -6.5°
Sets 06:07:29 0° 188° (S) 3,219 6.1 -6.2°
